Location: Unspecified
(0.0000°N, 0.0000°E)
Time: 14:28:30
(UTC+00:00)

Vanguard 1 Rocket - Pass Details

Date: 18 January 2020
Orbit: 650 x 4226 km, 34.3° (Epoch: 24 February)

Event Time Altitude Azimuth Distance (km) Brightness Sun altitude
Rises 18:18:48 0° 311° (NW) 8,080 12.7 -2.0°
Reaches altitude 10° 18:24:08 10° 313° (NW) 7,262 12.4 -3.2°
Maximum altitude 18:50:50 76° 37° (NE) 3,942 10.5 -9.5°
Drops below altitude 10° 19:09:37 10° 121° (ESE) 5,457 11.0 -13.9°
Sets 19:12:54 0° 122° (ESE) 6,099 11.3 -14.6°
